JCSAT-15 (41903 NORAD) Tracking and Keplerian Element Data

This shows tracking and keplerian element data for the satellite.

Feedback or suggestion? Click here.




ElementValue
Catalog41903
NameJCSAT-15
Epoch Orbit577
Epoch Day198.87303744
Epoch Year2018
RAAN281.7834
Inclination0.027
Eccentricity0.000101
Argument of Perigee346.3981
Mean Anonmoly91.7885
Mean Motion1.0027068
Decay Rate-3.71E-06
L11 41903U 16082A 18198.87303744 -.00000371 00000-0 00000-0 0 9999
L22 41903 0.0270 281.7834 0001010 346.3981 91.7885 1.00270680 5778

Live tracking and technical data element details for JCSAT-15 (NORAD 41903). JCSAT-15 can be tracked NOW for your location showing map with azimuth and elevation plus other details from your city location.

Track the satellite on the map from your city or location and see movement details for azimuth, elevation, latitude, longitude, range, height, and movement on the map or in text.







IsCatalogInMostPopularTable: catalog: 41903, numindb: 76
Update: records affected: 1



GetName: 41903 JCSAT-15

Hit Count: updated at: Wed, 18 Jul 2018 20:32:32 GMT